Regional Weather Roundup
Issued by NWS Wakefield, VA

Home | Current Version | Previous Version | Graphics & Text | Print | Product List | Glossary On
Versions: 1 2 3 4 5 6 7 8 9 10 11 12 13 14 15 16 17 18 19 20 21 22 23 24 25 26 27 28 29 30 31 32 33 34 35 36 37 38 39 40 41 42 43 44 45 46 47 48 49 50
000
ASUS41 KAKQ 301010
RWRAKQ

REGIONAL WEATHER ROUNDUP
NATIONAL WEATHER SERVICE WAKEFIELD VA
600 AM EDT SAT AUG 30 2014

Note: "fair" indicates few or no clouds below 12,000 feet with no
significant weather and/or obstructions to visibility. * = Denotes
station may not report precipitation (e.g., rain,snow,etc.),
thunder or fog.

VAZ042-051-052>054-056-301100-
NORTHERN VIRGINIA

CITY           SKY/WX    TMP DP  RH WIND       PRES   REMARKS
WASH NATIONAL  CLOUDY    71  61  70 S6        30.23R
DULLES         PTCLDY    66  63  88 S5        30.22R
FORT BELVOIR   MOCLDY    66  63  89 CALM      30.23R
QUANTICO       CLOUDY    72  63  73 S9        30.22S
FREDERICKSBRG* MOCLDY    67  64  87 CALM      30.21S
STAFFORD*      CLOUDY    65  65 100 CALM      30.25S
WARRENTON      CLOUDY    68  68  99 CALM      30.22R
CULPEPER*      CLOUDY   N/A N/A N/A CALM      30.22S
MANASSAS*      CLOUDY    66  64  94 CALM      30.22R
LEESBURG*      CLOUDY    68  64  88 S3        30.23R
WINCHESTER     CLEAR     64  59  82 S5        30.20S
$$

VAZ048-049-060>072-079>083-301100-
CENTRAL AND SOUTH CENTRAL VIRGINIA...AND NORTH CENTRAL NORTH CAROLINA

CITY           SKY/WX    TMP DP  RH WIND       PRES   REMARKS
RICHMOND       CLOUDY    70  63  78 CALM      30.22R
CHESTERFIELD*  PTSUNNY  N/A N/A N/A SE3       30.22S
PETERSBURG*    CLOUDY    69  64  83 CALM      30.21S
HANOVER        CLOUDY    67  64  90 CALM      30.23R
TAPPAHANNOCK*  PTCLDY    68  64  85 CALM      30.23R
CHARLOTTSVILLE CLOUDY    68  62  81 CALM      30.22R
ORANGE*        CLOUDY    66  61  82 CALM      30.23S
LOUISA*        CLOUDY    68  63  83 CALM      30.21R
FARMVILLE*     CLOUDY    72  70  94 CALM      30.20R
SOUTH HILL*    MOCLDY    70  70 100 CALM      30.26R
ROANOKE RAPIDS MOSUNNY   64  64 100 CALM      30.20S
RALEIGH        CLOUDY    72  67  84 SE5       30.20R
$$

VAZ088>098-301100-
SOUTHEAST VIRGINIA

CITY           SKY/WX    TMP DP  RH WIND       PRES   REMARKS
NORFOLK        CLOUDY    74  63  68 CALM      30.21R
VIRGINIA BEACH MOCLDY    73  63  70 SE6       30.20R
NORFOLK NAVAL  CLOUDY    75  64  68 E5        30.22S
WEST POINT*    CLOUDY    70  64  81 CALM      30.23R
NEWPORT NEWS   CLOUDY    74  65  73 CALM      30.21R
LANGLEY AFB    LGT RAIN  75  64  69 SE3       30.21R
FORT EUSTIS    MOCLDY    73  62  67 NE2       30.19S
WILLIAMSBURG*  PTCLDY    73  66  78 CALM      30.22R
FRANKLIN*      MOCLDY    70  66  88 CALM      30.21R
WAKEFIELD      CLOUDY    71  66  84 CALM      30.21R
$$

VAZ020-022-025-037-045-301100-
WESTERN AND SOUTHWEST VIRGINIA

CITY           SKY/WX    TMP DP  RH WIND       PRES   REMARKS
STAUNTON*      PTCLDY    67  61  81 S3        30.23S
HOT SPRINGS VA FOG       62  62 100 S8        30.34R VSB 1/4
LYNCHBURG      CLOUDY    70  68  93 S6        30.23R
DANVILLE       CLOUDY    73  70  90 CALM      30.21R
MARTINSVILLE   CLOUDY    71  71 100 CALM      30.24R FOG
ROANOKE        PTCLDY    70  68  93 SE3       30.24R
BLACKSBURG     CLOUDY    66  66 100 CALM      30.28R FOG
DUBLIN*        CLOUDY    68  68 100 CALM      30.27S FOG
MARION*        FOG      N/A N/A N/A CALM      30.30R VSB 1/4
HILLSVILLE*    CLOUDY    66  66  99 CALM      30.29R FOG
RICHLANDS*     SUNNY     73  65  78 SE3       30.25S
WISE*          CLEAR     68  66  94 S5        30.25S
ABINGDON*      CLEAR     68  67  97 E7        30.23S
$$

MDZ021>025-VAZ099-100-301100-
SOUTHERN MARYLAND AND THE DELMARVA PENINSULA

CITY           SKY/WX    TMP DP  RH WIND       PRES   REMARKS
PATUXENT RIVER MOCLDY    68  62  81 CALM      30.22R
BAY BRIDGE APT   N/A     68  61  77 SE3       30.23R
LEONARDTOWN    CLOUDY    68  59  73 CALM      30.24R
DOVER          PTCLDY    61  61 100 N2        30.22R
GEORGETOWN     MOCLDY    60  57  89 CALM      30.24S
EASTON         CLOUDY    64  64 100 CALM      30.27R
CAMBRIDGE      CLOUDY    63  59  88 CALM      30.22S
SALISBURY      CLEAR     60  55  83 CALM      30.24R
OCEAN CITY     MOCLDY    60  57  89 CALM      30.24R
WALLOPS ISLAND MOCLDY    65  61  87 CALM      30.24R
ACCOMACK*      NOT AVBL
$$

NCZ012>017-030>032-301100-
EASTERN NORTH CAROLINA

CITY           SKY/WX    TMP DP  RH WIND       PRES   REMARKS
ELIZABETH CITY CLOUDY    74  67  78 E6        30.20S
AHOSKIE*       CLEAR     69  65  88 CALM      30.21R
EDENTON*       CLOUDY    72  69  90 E3        30.19S
CURRITUCK*     CLOUDY    75  64  68 E3        30.21R
KILL DEVIL HLS CLOUDY    75  69  81 E6        30.19R
MANTEO         MOCLDY    74  69  83 E8        30.20R
CAPE HATTERAS  NOT AVBL
GOLDSBORO      CLEAR     70  69  98 E5        30.17S
WASHINGTON     PTCLDY    70  67  92 CALM      30.19S
GREENVILLE     MOCLDY    72  68  88 CALM      30.20S
NEW BERN       MOCLDY    73  70  90 CALM      30.19S
WILMINGTON     PTCLDY    72  71  97 NE3       30.16R
$$

VAZ048-301100-
ELSEWHERE

CITY           SKY/WX    TMP DP  RH WIND       PRES   REMARKS
HARRISBURG PA  MOCLDY    63  58  83 E3        30.22R
BALTIMORE      CLOUDY    67  62  84 E5        30.22R
ANNAPOLIS      CLOUDY    71  63  75 SE12      30.22R
ANDREWS AFB    CLOUDY    66  62  87 S2        30.23R FOG
WILMINGTON DE  PTCLDY    63  59  87 E6        30.25R
PHILADELPHIA   PTCLDY    62  58  86 E5        30.25S
WILDWOOD NJ*   CLEAR     66  59  77 E3        30.24S
ATLANTIC CITY  PTCLDY    55  53  93 CALM      30.25S
HENDERSON NC   CLOUDY    70  65  84 CALM      30.22R
GREENSBORO     CLOUDY    74  72  93 S3        30.20R
ROCKY MOUNT    MOCLDY    70  67  90 CALM      30.19S
FAYETTEVILLE   MOCLDY    71  69  93 N5        30.18R FOG
CHARLOTTE      PTCLDY    69  67  93 CALM      30.19R
$$

VAZ100-301100-
MARINE

STATION/POSITION TIME  TEMP    WIND        PRES    WAVE   SWELL
                       AIR SEA DIR/SP/G            HT/PER HT/PER
                 (UTC) (F)     (DEG/KT/KT) (MB)    (FT/S) (FT/S)
44066 TX TWR #4  1000   70 72  140/  6/ 10 1024.8R   3/ 9   2/ 9
CAPE MAY NJ      1000   67 78   90/  2/  3 1023.3R
LEWES DE         1000   67 76  180/  3/  4 1023.4S
15NM E FENWICK I 1000   72 73              1023.8R   2/ 8
OCEAN-CITY-INLET 1000   71 75  130/  4/  6 1023.3S
WACHAPREAGUE VA  1000   66 78   CALM  /  1 1023.8S
THOMAS POINT MD  1000   70 77  130/  9/  9 1024.4R
GOOSES REEF MD   1000   71     150/ 10/ 12 1023.7R
COVE POINT MD    1000   72     160/  8/ 10 1023.4R
SOLOMONS ISLAND  1000      78                N/A
BISHOPS HEAD MD  1000   71 75  120/  8/  9 1023.0R
PINEY POINT MD   1000          170/  9/ 11   N/A
POTOMAC MD       1000   75     160/ 10/ 12 1022.5S
CAMBRIDGE MD     1000   66 78  110/  3/  4 1023.2S
LEWISETTA VA     1000   71 78  140/  3/  4 1022.9R
RAPPAHANNOCK LGT 1000          110/  9/  9 1023.6F
STINGRAY PT      1000   75     150/ 10/ 12   N/A
YORK RVR RNG VA  1000   76     130/ 11/ 15 1022.4S
YORKTOWN VA      1000   76 80  140/  4/  7 1022.6R
JAMESTOWN VA     1000   73     120/  6/ 10   N/A
DOMINION TERM VA 1000   75     110/  8/ 10 1022.9R
KIPTOPEKE VA     1000      81   90/  4/  6   N/A
CHES BAY BRIDGE  1000   76 78   80/ 10/ 12 1022.4R
CAPE HENRY VA    1000   75      90/ 11/ 12 1021.6S
CHESAPEAKE LGHT  0900   75     110/ 10/ 11 1023.3R
WILLOUBY STN VA  1000   75      90/  5/  6 1021.7R
S CRANEY ISL VA  1000           60/  5/  5 1022.5R
CAPE HENRY BUOY  1000      76                N/A     3/ 8
1ST LANDING BUOY 1000   76     110/ 10/ 12 1022.5S
CAPE CHARLES BUO 1000      76                N/A     2/ 8   2/ 8
OFFSHORE WE BUOY 1000      76                N/A     3/ 8   2/ 8
64NM E OF VA BCH 1000   76 76   80/ 10/ 10 1022.5R   3/ 7   3/ 7
DUCK PIER NC     1000   76 78  100/ 13/ 15 1021.8S
44056 DUCK FRF   1000                        N/A     3/ 7
OREGON INLET NC  1000   75 78   70/  8/ 11 1022.1S
HATTERAS NC      1000   78 82   90/  3/  5 1022.3S
DIAMOND SHLS NC  1000   77     170/  4/  8 1021.8R   4/ 9   3/ 9
CAPE LOOKOUT NC  0900   80      50/  3/  4 1021.3R
$$



USA.gov is the U.S. government's official web portal to all federal, state and local government web resources and services.